{"data":{"norad_id":60124,"epoch":"2026-05-25T04:34:47.171136Z","epoch_age_seconds":62029,"freshness":"FRESH","line1":"1 60124U 24118M   26145.19082374  .00002641  00000+0  26643-4 0  9998","line2":"2 60124  53.1587 204.5056 0000881  73.3020 286.8094 15.69717104110008","mean_motion":15.69717104,"eccentricity":8.81e-5,"inclination_deg":53.1587,"raan_deg":204.5056,"arg_perigee_deg":73.302,"mean_anomaly_deg":286.8094,"bstar":2.6643e-5,"rev_number":11000,"period_min":91.73627504794,"perigee_km":359.11281756227,"apogee_km":360.30002557315,"semimajor_km":6737.8434215677,"source":"CELESTRAK","updated_at":"2026-05-25T13:38:19.167770Z"}}